[[{"header":{"parameterUnit":"m.s-1","parameterCategory":1,"la1":30.2991,"la2":30.254,"lo1":-89.0895,"lo2":-89.0444,"dy":0.0017,"dx":0.0017,"nx":28,"ny":28,"refTime":"2025-09-13T03:00:00:Z","depth":0,"parameterNumber":2,"parameterNumberName":"U-component_of_WINDS"},"data":[0,0,0,0,0,0,0,0,0,0,0,0,0,0,0,0,0,0,0,0,0,0,0,0,0,0,0,0,0,0,0,0,0,0,0,0,0,0,0,0,0,0,0,0,0,0,0,0,0,0,0,0,0,0,0,0,0,0,-0.6063,-0.6064,0,-0.6185,-0.6186,-0.6188,-0.6221,-0.622,-0.622,-0.6219,-0.6348,-0.6352,-0.6356,0,0,0,0,0,0,0,0,0,0,0,0,0,-0.5861,-0.5864,-0.6062,-0.6064,-0.6065,-0.6185,-0.6186,-0.6188,-0.6221,-0.622,-0.6219,-0.6219,-0.6347,-0.6351,-0.6356,0,0,0,0,0,0,0,0,0,0,0,0,0,-0.5962,-0.5866,-0.6062,-0.6096,-0.6101,-0.6184,-0.6186,-0.6189,-0.6221,-0.622,-0.6219,-0.6218,-0.6345,-0.6351,-0.6357,-0.6417,0,0,-0.6376,-0.6379,0,0,0,0,0,0,0,0,-0.5957,-0.597,-0.609,-0.6094,-0.6099,-0.6187,-0.6163,-0.6265,-0.6222,-0.6176,-0.6219,-0.6218,-0.6295,-0.6306,-0.6331,-0.6423,-0.6428,-0.6376,-0.638,-0.6383,-0.6385,0,0,0,0,0,0,0,-0.595,-0.5965,-0.6111,-0.6091,-0.6097,-0.6107,-0.612,-0.6182,-0.624,-0.618,-0.6182,-0.6196,-0.6298,-0.6325,-0.6334,-0.643,-0.6376,-0.6382,-0.6386,-0.6388,-0.6578,-0.658,0,0,0,0,0,0,-0.5936,-0.5959,-0.6107,-0.6115,-0.6024,-0.6111,-0.6126,-0.616,-0.624,-0.6251,-0.6197,-0.6197,-0.6315,-0.6327,-0.6339,-0.6415,-0.6383,-0.6389,-0.6392,-0.6577,-0.6579,-0.658,0,0,0,0,0,0,-0.5932,-0.5949,-0.6102,-0.6037,-0.6058,-0.6116,-0.6153,-0.6163,-0.619,-0.6253,-0.6264,-0.6214,-0.6315,-0.633,-0.6397,-0.642,-0.6391,-0.6397,-0.6575,-0.6578,-0.6579,-0.6566,0,0,0,0,0,0,-0.5926,-0.5947,-0.597,-0.6038,-0.6061,-0.6157,-0.6155,-0.6166,-0.62,-0.6202,-0.6271,-0.6282,-0.6315,-0.6388,-0.6403,-0.6428,-0.6402,-0.6574,-0.6576,-0.6579,-0.6565,-0.6568,-0.657,0,0,0,0,0,-0.5918,-0.5962,-0.5971,-0.5988,-0.609,-0.6158,-0.6172,-0.6208,-0.6202,-0.6225,-0.6266,-0.628,-0.6414,-0.6394,-0.6412,-0.6439,-0.6572,-0.6576,-0.6579,-0.6564,-0.6567,-0.657,0,0,0,0,0,0,-0.5896,-0.5971,-0.5982,-0.6048,-0.6096,-0.6164,-0.6195,-0.621,-0.6262,-0.6261,-0.6305,-0.632,-0.6384,-0.6418,-0.6394,-0.6501,-0.6494,-0.6501,-0.6477,-0.648,-0.6483,-0.6474,-0.6407,0,0,0,0,0,-0.5898,-0.5946,-0.601,-0.6063,-0.6086,-0.6136,-0.6167,-0.6191,-0.6243,-0.6264,-0.6309,-0.636,-0.6415,-0.6449,-0.6502,-0.657,-0.6586,-0.6597,-0.6599,-0.6601,-0.6607,-0.6646,-0.6652,-0.659,-0.659,-0.659,0,0,-0.5905,-0.5952,-0.598,-0.6059,-0.6099,-0.6149,-0.6153,-0.6206,-0.6244,-0.6272,-0.6338,-0.6373,-0.6433,-0.6501,-0.6533,-0.6531,-0.6627,-0.6605,-0.6606,-0.6611,-0.665,-0.6656,-0.6661,-0.6592,-0.6592,-0.6592,0,0,-0.5942,-0.5981,-0.603,-0.607,-0.613,-0.6163,-0.6175,-0.624,-0.6264,-0.633,-0.6353,-0.6399,-0.6491,-0.6533,-0.6567,-0.662,-0.6635,-0.6636,-0.6649,-0.6687,-0.6691,-0.6696,-0.6716,-0.6722,-0.6641,-0.6641,-0.6641,0,-0.5942,-0.6017,-0.6053,-0.6105,-0.6139,-0.6166,-0.6216,-0.6254,-0.6329,-0.6353,-0.6349,-0.6465,-0.6508,-0.6586,-0.6599,-0.6625,-0.664,-0.6628,-0.6688,-0.6692,-0.6697,-0.6717,-0.6724,-0.6641,-0.6641,-0.6641,-0.6641,0,-0.6015,-0.6067,-0.6099,-0.6169,-0.6208,-0.6258,-0.6303,-0.6338,-0.6358,-0.6392,-0.646,-0.6511,-0.6576,-0.6596,-0.6617,-0.6677,-0.6674,-0.6679,-0.6672,-0.6702,-0.6721,-0.6729,-0.664,-0.664,-0.664,-0.6641,0,0,-0.6042,-0.6131,-0.6142,-0.6175,-0.6243,-0.6285,-0.6337,-0.6399,-0.6428,-0.6479,-0.6525,-0.6602,-0.6606,-0.6644,-0.667,-0.6703,-0.6743,-0.6704,-0.6706,-0.671,-0.6814,-0.6811,-0.6819,-0.6753,-0.6754,-0.6756,-0.6809,0,-0.6088,-0.618,-0.6214,-0.6291,-0.634,-0.6367,-0.6412,-0.646,-0.6493,-0.654,-0.6577,-0.6631,-0.6633,-0.6656,-0.669,-0.673,-0.6764,-0.6727,-0.6797,-0.6799,-0.6782,-0.6829,-0.6825,-0.6873,-0.6817,-0.6818,-0.6819,0,-0.6154,-0.6204,-0.6286,-0.6348,-0.637,-0.641,-0.647,-0.6515,-0.657,-0.6592,-0.6634,-0.6657,-0.6714,-0.6704,-0.6784,-0.6757,-0.6788,-0.6813,-0.6816,-0.6824,-0.6811,-0.6839,-0.689,-0.6897,-0.6831,-0.683,-0.6829,0,-0.6166,-0.6254,-0.6315,-0.6342,-0.6416,-0.6444,-0.6477,-0.6531,-0.6566,-0.6618,-0.6642,-0.6701,-0.6733,-0.6779,-0.6818,-0.6807,-0.6895,-0.6887,-0.6916,-0.6915,-0.6933,-0.6932,-0.699,-0.6952,-0.6952,-0.6952,-0.6951,0,-0.6214,-0.6263,-0.6321,-0.6358,-0.6414,-0.6453,-0.6508,-0.6543,-0.659,-0.6636,-0.6662,-0.6705,-0.6754,-0.6803,-0.6834,-0.6896,-0.691,-0.693,-0.6938,-0.6928,-0.6926,-0.695,-0.6948,-0.6954,-0.6953,-0.6953,-0.6952,0,-0.6237,-0.6278,-0.6346,-0.641,-0.6428,-0.6466,-0.6523,-0.656,-0.6594,-0.6651,-0.6667,-0.6721,-0.678,-0.6823,-0.69,-0.6921,-0.6987,-0.6995,-0.6968,-0.6973,-0.6999,-0.6996,-0.7075,-0.7088,-0.704,-0.704,-0.704,0,-0.6266,-0.6304,-0.6373,-0.6404,-0.6436,-0.6487,-0.6523,-0.6563,-0.6599,-0.6665,-0.6695,-0.6756,-0.6806,-0.69,-0.6947,-0.7006,-0.7015,-0.7039,-0.7025,-0.7014,-0.7017,-0.7014,-0.7019,-0.7041,-0.7042,-0.7042,-0.7042,0,-0.6313,-0.6331,-0.638,-0.6437,-0.6479,-0.6526,-0.6573,-0.6598,-0.6647,-0.6687,-0.6747,-0.6786,-0.6864,-0.6924,-0.6988,-0.7023,-0.7041,-0.7046,-0.7056,-0.7047,-0.703,-0.704,-0.6975,-0.7044,-0.7044,-0.7044,-0.7044,-0.7044,-0.634,-0.6375,-0.6429,-0.6484,-0.6523,-0.6567,-0.6606,-0.6644,-0.6695,-0.676,-0.6781,-0.6844,-0.6899,-0.6986,-0.7022,-0.7072,-0.7072,-0.7086,-0.7089,-0.7092,-0.7092,-0.7021,-0.7084,-0.7084,-0.7084,-0.7084,-0.7084,0,-0.6389,-0.6424,-0.6474,-0.6539,-0.6583,-0.6594,-0.6648,-0.6684,-0.6738,-0.6787,-0.6836,-0.6905,-0.6964,-0.7015,-0.7076,-0.7107,-0.7117,-0.7122,-0.712,-0.7128,-0.7089,-0.7074,-0.7112,-0.7112,-0.7112,-0.7112,-0.7112,-0.7112,-0.6419,-0.648,-0.6504,-0.6585,-0.6621,-0.6681,-0.6711,-0.6752,-0.6791,-0.6867,-0.6915,-0.6948,-0.6998,-0.7063,-0.7118,-0.7132,-0.7153,-0.7156,-0.7172,-0.7134,-0.7131,-0.7128,-0.7114,-0.716,-0.716,-0.7208,-0.7208,-0.7209]},{"header":{"parameterUnit":"m.s-1","parameterCategory":1,"la1":30.2991,"la2":30.254,"lo1":-89.0895,"lo2":-89.0444,"dy":0.0017,"dx":0.0017,"nx":28,"ny":28,"refTime":"2025-09-13T03:00:00:Z","depth":0,"parameterNumber":3,"parameterNumberName":"V-component_of_WINDS"},"data":[0,0,0,0,0,0,0,0,0,0,0,0,0,0,0,0,0,0,0,0,0,0,0,0,0,0,0,0,0,0,0,0,0,0,0,0,0,0,0,0,0,0,0,0,0,0,0,0,0,0,0,0,0,0,0,0,0,0,0.2555,0.2554,0,0.2428,0.2427,0.2425,0.2341,0.2341,0.234,0.234,0.2207,0.2204,0.2201,0,0,0,0,0,0,0,0,0,0,0,0,0,0.2723,0.272,0.2556,0.2554,0.2552,0.2429,0.2427,0.2425,0.2341,0.2341,0.234,0.2339,0.2208,0.2204,0.22,0,0,0,0,0,0,0,0,0,0,0,0,0,0.2628,0.2719,0.2556,0.2496,0.2489,0.2429,0.2427,0.2425,0.2342,0.2341,0.234,0.2339,0.2209,0.2204,0.22,0.2188,0,0,0.2186,0.2184,0,0,0,0,0,0,0,0,0.2634,0.2622,0.2506,0.25,0.2492,0.24,0.2437,0.2345,0.2342,0.2398,0.234,0.2339,0.2271,0.2262,0.2239,0.2182,0.2176,0.2186,0.2183,0.2181,0.218,0,0,0,0,0,0,0,0.264,0.2627,0.2505,0.2505,0.2496,0.2474,0.246,0.2419,0.2341,0.2393,0.2386,0.2372,0.2267,0.2244,0.2236,0.2174,0.2186,0.2182,0.2179,0.2177,0.2101,0.2101,0,0,0,0,0,0,0.2657,0.2633,0.2509,0.2501,0.2563,0.2472,0.2456,0.243,0.2341,0.2326,0.2373,0.2369,0.2252,0.2241,0.2231,0.2211,0.2181,0.2177,0.2174,0.21,0.2101,0.2101,0,0,0,0,0,0,0.2661,0.2647,0.2514,0.2565,0.2547,0.247,0.2442,0.2428,0.2405,0.2326,0.2311,0.2364,0.2251,0.2237,0.22,0.2205,0.2175,0.217,0.2099,0.21,0.2101,0.2172,0,0,0,0,0,0,0.2666,0.2649,0.2644,0.2566,0.2545,0.2486,0.2442,0.2426,0.2398,0.2391,0.2314,0.23,0.2249,0.2207,0.2195,0.2198,0.2167,0.2098,0.2099,0.2101,0.2168,0.2175,0.2181,0,0,0,0,0,0.2672,0.2669,0.2644,0.263,0.2538,0.2487,0.2474,0.2417,0.2399,0.2393,0.2342,0.2303,0.2207,0.2204,0.219,0.2192,0.2098,0.2099,0.2101,0.2166,0.2174,0.218,0,0,0,0,0,0,0.2748,0.2657,0.2629,0.2601,0.2552,0.2473,0.2464,0.2427,0.2382,0.2378,0.2308,0.2291,0.226,0.2222,0.2221,0.2175,0.2147,0.2146,0.2202,0.2208,0.2214,0.2224,0.2163,0,0,0,0,0,0.2762,0.2729,0.2651,0.2633,0.261,0.2542,0.2517,0.2477,0.2424,0.2403,0.2349,0.2299,0.2257,0.223,0.2188,0.2163,0.2144,0.2157,0.2163,0.2169,0.2168,0.2151,0.2156,0.2107,0.2107,0.2106,0,0,0.2789,0.2735,0.2719,0.2647,0.2605,0.2572,0.2525,0.2492,0.2466,0.2397,0.2359,0.2318,0.2256,0.2225,0.2209,0.2192,0.2178,0.2171,0.2175,0.2172,0.2153,0.2158,0.2162,0.2108,0.2107,0.2107,0,0,0.2822,0.2779,0.2758,0.2717,0.2655,0.2609,0.2604,0.253,0.2501,0.2461,0.2409,0.2377,0.2307,0.2265,0.2234,0.2252,0.2213,0.224,0.2271,0.2255,0.2259,0.2262,0.2268,0.2271,0.224,0.224,0.224,0,0.2863,0.2812,0.2753,0.2722,0.2692,0.263,0.2608,0.2571,0.2497,0.2477,0.246,0.2371,0.2325,0.2282,0.2287,0.2264,0.2256,0.2248,0.2264,0.2266,0.2268,0.2272,0.2275,0.2243,0.2243,0.2242,0.2242,0,0.2866,0.2831,0.2823,0.2754,0.2722,0.2697,0.2632,0.2608,0.2571,0.2527,0.2487,0.243,0.2374,0.2361,0.2324,0.2313,0.2305,0.2277,0.2247,0.2277,0.228,0.2282,0.2248,0.2247,0.2246,0.2245,0,0,0.2942,0.2841,0.2839,0.2807,0.2733,0.2705,0.2676,0.2623,0.2602,0.2554,0.2527,0.2469,0.2443,0.2408,0.2366,0.2353,0.2369,0.2326,0.2323,0.2335,0.2353,0.2374,0.2377,0.2344,0.2344,0.2344,0.2358,0,0.2963,0.291,0.2855,0.282,0.2787,0.2727,0.2702,0.2654,0.2612,0.2577,0.253,0.249,0.2459,0.2437,0.2421,0.2371,0.2372,0.2369,0.2317,0.2316,0.2334,0.2379,0.2401,0.2417,0.2359,0.2359,0.2359,0,0.298,0.2935,0.2898,0.2827,0.2811,0.279,0.2736,0.2704,0.2647,0.2617,0.258,0.2535,0.2501,0.2476,0.2427,0.2427,0.2402,0.2374,0.2374,0.2366,0.2339,0.2372,0.2421,0.2423,0.236,0.236,0.236,0,0.3039,0.2969,0.2937,0.2911,0.2828,0.2815,0.2779,0.2722,0.2693,0.2646,0.2627,0.2576,0.2549,0.251,0.2453,0.244,0.241,0.238,0.2384,0.2385,0.2379,0.238,0.2425,0.2365,0.2365,0.2365,0.2365,0,0.3067,0.3047,0.2962,0.2943,0.2917,0.2854,0.2831,0.279,0.274,0.271,0.2655,0.2629,0.2555,0.252,0.2475,0.2441,0.2429,0.2403,0.2391,0.2408,0.2411,0.239,0.2387,0.2366,0.2366,0.2366,0.2366,0,0.3128,0.3071,0.3032,0.2957,0.2938,0.2922,0.2857,0.2835,0.2791,0.2754,0.2742,0.2672,0.2627,0.2567,0.2503,0.2472,0.2444,0.2426,0.2464,0.2457,0.2463,0.2463,0.2495,0.2496,0.2438,0.2438,0.2439,0,0.315,0.3132,0.3056,0.3033,0.2999,0.2963,0.2933,0.2871,0.2842,0.2777,0.2763,0.2714,0.2672,0.2603,0.2546,0.2497,0.2476,0.2491,0.2468,0.2485,0.2475,0.2477,0.2475,0.2496,0.2497,0.2498,0.2499,0,0.3194,0.3167,0.3127,0.3078,0.3045,0.3002,0.2957,0.2942,0.2869,0.284,0.2794,0.2762,0.2697,0.2649,0.2592,0.2555,0.2514,0.2506,0.2504,0.252,0.2543,0.253,0.2478,0.2506,0.2505,0.2504,0.2504,0.2504,0.3235,0.3217,0.316,0.3117,0.3077,0.3037,0.3013,0.2966,0.2927,0.287,0.2835,0.2791,0.2734,0.2654,0.2618,0.2582,0.2566,0.2563,0.2562,0.2562,0.2568,0.255,0.2571,0.2571,0.2571,0.257,0.257,0,0.3276,0.3236,0.3198,0.3138,0.3104,0.3071,0.3019,0.2993,0.2955,0.2906,0.2866,0.2813,0.2766,0.2706,0.2655,0.2637,0.2617,0.2626,0.2626,0.2618,0.2585,0.2592,0.2643,0.2643,0.2643,0.2643,0.2643,0.2643,0.3293,0.326,0.3226,0.3172,0.3133,0.3089,0.3063,0.3025,0.2986,0.293,0.2891,0.2852,0.2798,0.2743,0.2698,0.2681,0.2664,0.2678,0.2656,0.2627,0.262,0.2614,0.262,0.2676,0.2676,0.2691,0.2692,0.2692]}]]